This demonstration page uses our WeatherBlox Daily Observations layout. Learn more.

Left ArrowRight Arrow

39.29038, -76.61219

Hourly Observations for November 10, 2018

Temp ( °F °C ) Dew Point ( °F °C ) Humidity (%) Winds ( mph kmh ) Pressure ( in mb ) Visibility ( mi km ) Precip ( " mm )
12:54 am 00:54 undefined 48 8.9 42 5.6 80 80 undefined N/A 29.91 1013 N/A 0.00 0.00
1:54 am 01:54 undefined 47 8.3 40 4.4 77 77 undefined N/A 29.91 1013 N/A 0.00 0.00
2:54 am 02:54 undefined 46 7.8 40 4.4 79 79 undefined N/A 29.92 1013 N/A 0.00 0.00
3:54 am 03:54 undefined 45 7.2 39 3.9 80 80 undefined N/A 29.93 1014 N/A 0.00 0.00
4:54 am 04:54 undefined 45 7.2 38 3.3 77 77 undefined N/A 29.98 1015 N/A 0.00 0.00
5:54 am 05:54 undefined 44 6.7 37 2.8 76 76 undefined N/A 29.99 1016 N/A 0.00 0.00
6:54 am 06:54 undefined 42 5.6 32 0 68 68 undefined N/A 30.01 1016 N/A 0.00 0.00
7:54 am 07:54 undefined 43 6.1 20 -6.7 40 40 undefined N/A 30.07 1018 N/A 0.00 0.00
8:54 am 08:54 undefined 42 5.6 13 -10.6 30 30 undefined N/A 30.12 1020 N/A 0.00 0.00
9:54 am 09:54 undefined 42 5.6 13 -10.6 30 30 undefined N/A 30.12 1020 N/A 0.00 0.00
10:54 am 10:54 undefined 44 6.7 16 -8.9 32 32 undefined N/A 30.16 1021 N/A 0.00 0.00
11:54 am 11:54 undefined 44 6.7 14 -10 30 30 undefined N/A 30.14 1021 N/A 0.00 0.00
12:54 pm 12:54 undefined 44 6.7 14 -10 30 30 undefined N/A 30.14 1021 N/A 0.00 0.00
1:54 pm 13:54 undefined 44 6.7 15 -9.4 31 31 undefined N/A 30.17 1022 N/A 0.00 0.00
2:54 pm 14:54 undefined 43 6.1 11 -11.7 27 27 undefined N/A 30.15 1021 N/A 0.00 0.00
3:54 pm 15:54 undefined 41 5 9 -12.8 27 27 undefined N/A 30.21 1023 N/A 0.00 0.00
4:54 pm 16:54 undefined 40 4.4 11 -11.7 30 30 undefined N/A 30.24 1024 N/A 0.00 0.00
5:54 pm 17:54 undefined 39 3.9 12 -11.1 33 33 undefined N/A 30.27 1025 N/A 0.00 0.00
6:54 pm 18:54 undefined 38 3.3 13 -10.6 36 36 undefined N/A 30.28 1026 N/A 0.00 0.00
7:54 pm 19:54 undefined 37 2.8 15 -9.4 41 41 undefined N/A 30.28 1026 N/A 0.00 0.00
8:54 pm 20:54 undefined 36 2.2 16 -8.9 44 44 undefined N/A 30.31 1026 N/A 0.00 0.00
9:54 pm 21:54 undefined 35 1.7 16 -8.9 46 46 undefined N/A 30.32 1027 N/A 0.00 0.00
10:54 pm 22:54 undefined 34 1.1 17 -8.3 50 50 undefined N/A 30.34 1027 N/A 0.00 0.00
11:54 pm 23:54 undefined 33 0.6 17 -8.3 52 52 undefined N/A 30.36 1028 N/A 0.00 0.00

Powered by AerisWeather